Flag for Brazil Weather past 2 weeks in Campinas, São Paulo, Brazil

Now
64 °F

Clear.


Feels Like: 64 °F
Forecast: 56 / 82 °F
Wind: 10 mph from Southeast

Location: Campinas Aeroporto

Current Time: Aug 22, 2014 at 3:10:07 AM

Latest Report: Aug 22, 2014 at 2:00 AM


Visibility: 10 mi

Pressure: 30.15 "Hg

Humidity: 60%

Dew point: 50 °F

Location of CampinasLocation

Historic Weather in Campinas — Graph

°F

Campinas temperature yesterday

Maximum temperature yesterday: 84 °F (at 3:00 PM)
Minimum temperature yesterday: 57 °F (at 4:00 AM)
Average temperature yesterday: 70 °F

Past Weeks' High & Low Weather Summary

 TemperatureHumidityPressure
High86 °F (Aug 12, 2:00 PM)94% (Aug 17, 3:00 AM)30.36 "Hg (Aug 17, 3:00 AM)
Low52 °F (Aug 7, 6:00 AM)15% (Aug 11, 4:00 PM)30.01 "Hg (Aug 13, 3:00 AM)
Average66 °F63%30.20 "Hg
* Reported Aug 7 2:00 AM — Aug 22 2:00 AM, Campinas, Weather by CustomWeather, © 2014

Note: Actual official high and low records may vary slightly from our data, if they occured in-between our weather recording intervals... More about our weather records

Advertising

Campinas weather history for previous 24 hours

 ConditionsComfort  
Time TempWeatherWind HumidityBarometerVisibility
2:00 AM
Aug 22
64 °FClear.10 mph60%30.15 "Hg10 mi
1:00 AM66 °FClear.12 mph56%30.15 "Hg10 mi
12:00 AM66 °FClear.13 mph60%30.15 "Hg10 mi
11:00 PM
Aug 21
68 °FClear.13 mph56%30.15 "Hg10 mi
10:00 PM68 °FClear.13 mph56%30.15 "Hg10 mi
9:00 PM72 °FClear.7 mph44%30.12 "Hg10 mi
8:00 PM75 °FClear.8 mph36%30.12 "Hg10 mi
7:00 PM79 °FClear.6 mph30%30.12 "Hg10 mi
6:00 PM81 °FClear.6 mph26%30.09 "Hg10 mi
5:00 PM84 °FClear.5 mph22%30.09 "Hg10 mi
4:00 PM84 °FSunny.3 mph22%30.09 "Hg10 mi
3:00 PM84 °FSunny.6 mph22%30.12 "Hg10 mi
2:00 PM82 °FSunny.9 mph25%30.12 "Hg10 mi
1:00 PM81 °FSunny.7 mph28%30.15 "Hg10 mi
12:00 PM79 °FSunny.9 mph32%30.21 "Hg10 mi
11:00 AM75 °FSunny.8 mph41%30.24 "Hg10 mi
10:00 AM72 °FSunny.8 mph50%30.24 "Hg10 mi
9:00 AM66 °FSunny.7 mph68%30.24 "Hg10 mi
8:00 AM59 °FSunny.9 mph82%30.24 "Hg10 mi
7:00 AM57 °FSunny.8 mph88%30.21 "Hg10 mi
6:00 AM57 °FSunny.9 mph88%30.21 "Hg10 mi
5:00 AM57 °FClear.12 mph88%30.18 "Hg10 mi
4:00 AM57 °FClear.12 mph88%30.18 "Hg10 mi
3:00 AM59 °FClear.15 mph82%30.18 "Hg10 mi
Weather by CustomWeather, © 2014

See weather overviewHow to use our weather pages